Theta_e
303 303 304 304 304 305 305 305 306 306 306 306 307 307 307 308 308 304 301 305 299 293 294 297 297 293 293 292 288 291 289 291 291 285 287 288 287 288 287 291 294 294 294 293 292 291 288 306 305 298 301 307 309 309
303 303 303 304 304 304 304 304 304 304 305 306 306 307 307 307 308 307 299 306 306 298 295 300 300 301 299 298 293 291 290 289 293 290 289 291 289 291 289 285 297 293 297 294 296 295 305 308 305 312 312 307 310 310
302 303 303 303 304 304 304 303 303 304 304 306 306 307 307 306 307 306 301 302 303 297 295 296 298 302 305 303 302 292 296 297 295 297 292 292 289 292 286 288 291 296 297 296 297 301 302 308 310 312 312 310 313 314
303 303 303 303 303 303 303 303 303 304 305 306 306 307 307 307 306 306 301 303 302 297 291 292 302 300 307 305 302 300 299 301 300 299 293 291 289 295 291 293 292 295 296 298 298 300 302 304 307 311 314 314 314 314
302 302 303 303 303 303 303 303 304 304 305 306 307 307 307 306 305 305 303 303 306 297 290 291 298 304 305 305 303 303 300 297 296 294 292 290 295 294 296 295 291 297 295 294 294 299 299 300 303 314 313 312 314 313
301 302 302 303 303 303 303 303 304 305 306 307 307 307 306 305 306 301 297 306 308 303 293 287 298 299 302 302 302 301 300 298 296 294 293 295 298 294 289 287 295 298 301 300 297 301 301 302 305 309 313 314 315 315
301 302 302 302 303 303 303 304 304 305 306 306 306 307 307 306 303 298 296 302 304 302 295 290 290 298 302 301 299 298 300 297 295 293 292 293 294 296 291 286 295 298 300 301 302 303 300 303 301 305 311 315 316 319
301 301 302 302 302 303 303 304 305 305 305 306 306 306 307 305 303 299 303 307 305 298 298 289 289 293 302 296 293 298 295 296 295 293 293 291 293 293 287 292 296 297 297 299 302 304 302 303 304 304 313 315 314 316
301 301 301 302 302 302 303 304 305 305 305 305 306 306 306 301 300 303 308 308 305 298 291 292 287 286 300 296 296 296 299 290 296 290 291 292 289 286 291 293 295 297 297 298 302 301 302 301 303 304 304 311 314 314
300 301 301 302 302 302 303 304 305 305 305 306 306 303 300 303 309 309 303 299 297 297 296 290 295 287 296 294 291 292 295 290 287 290 296 290 289 294 295 296 297 298 300 299 298 298 301 300 302 303 305 307 313 315
300 300 301 301 302 303 303 304 305 304 307 305 300 300 305 311 305 301 295 294 296 292 296 296 295 292 299 290 288 291 287 289 285 290 291 288 288 294 297 298 301 300 299 300 302 303 303 303 303 304 307 309 310 310
300 300 301 301 302 303 304 304 304 303 303 302 300 303 305 304 298 294 291 294 292 290 296 294 295 297 297 295 289 289 286 289 284 291 289 287 290 293 293 294 297 300 302 300 301 302 303 306 305 306 307 308 310 311
300 300 300 301 302 304 303 302 303 304 305 308 301 300 296 296 287 286 285 289 290 295 296 296 294 296 296 293 288 287 284 284 290 286 285 288 292 293 293 296 297 300 303 301 300 302 305 307 308 307 306 308 310 310
300 300 300 301 302 302 301 302 303 304 304 302 297 287 291 288 291 291 292 293 297 298 298 297 296 295 295 291 289 285 288 287 284 283 284 289 291 292 295 298 299 299 303 305 302 302 303 306 307 307 307 308 309 309
299 300 300 302 301 301 301 302 303 309 306 298 298 287 291 296 298 297 298 296 298 299 298 295 295 296 291 289 289 287 285 282 284 283 285 290 293 294 296 298 300 301 303 305 306 306 308 308 306 306 308 309 311 310
299 300 302 300 300 300 301 303 309 313 306 300 299 294 297 295 294 296 296 295 299 299 300 297 292 290 289 288 286 284 283 281 284 285 291 296 296 298 297 299 301 303 304 304 305 307 308 309 309 309 310 312 316 318
298 297 300 300 299 300 302 303 310 304 299 298 297 300 299 296 296 296 298 297 301 298 293 294 288 286 291 286 284 285 284 285 291 295 299 301 298 299 301 301 301 301 302 303 305 307 308 310 311 311 309 314 316 316
293 296 298 299 299 300 306 309 304 300 295 298 295 297 298 298 297 298 299 300 299 297 296 293 295 288 285 283 285 289 290 296 298 299 300 302 302 303 303 302 303 301 301 303 305 304 307 306 306 308 311 312 313 314
296 297 298 299 299 297 300 304 305 295 297 299 299 299 299 299 301 300 301 301 302 301 298 296 292 290 290 294 294 295 297 297 297 299 301 303 303 304 304 304 304 303 303 302 303 305 305 305 305 307 308 310 310 310
298 298 298 300 301 301 299 300 307 299 295 298 299 296 298 298 300 301 301 300 299 296 294 292 293 294 296 298 300 299 300 300 298 296 298 300 302 303 303 303 303 304 304 304 304 301 305 306 307 307 306 305 307 307
297 300 300 302 301 301 301 299 298 300 299 297 298 297 296 299 298 298 297 299 296 294 292 295 296 299 302 301 301 302 301 301 300 298 298 297 300 301 301 303 303 303 303 302 302 302 303 304 305 306 307 308 309 309
295 300 300 303 298 301 300 303 298 300 297 296 296 297 294 295 295 296 300 296 295 296 297 296 297 298 300 301 301 302 301 302 302 301 299 299 299 299 300 301 302 301 301 302 303 302 303 305 306 307 306 307 306 307
297 300 299 299 295 293 292 302 295 296 292 294 296 293 293 294 296 300 294 295 297 300 299 299 299 300 301 303 303 302 303 302 301 300 301 300 302 300 301 301 301 301 301 301 304 304 304 296 302 305 306 306 306 305
299 294 292 292 294 288 296 294 299 295 294 291 291 290 291 293 296 292 290 293 297 300 299 299 298 297 299 301 299 300 300 301 301 301 302 301 299 299 301 300 301 302 302 303 303 304 304 304 301 304 304 304 304 304
287 286 289 286 293 291 290 290 291 290 289 290 290 289 291 294 289 288 289 292 296 297 297 298 297 297 296 297 298 301 302 300 300 299 301 300 300 300 300 300 300 301 302 301 301 302 302 303 302 302 302 303 302 302
279 286 286 288 289 289 290 287 287 288 289 288 289 292 293 289 286 286 290 293 296 297 297 297 296 295 295 296 297 298 299 301 301 300 300 301 301 299 298 298 297 298 301 301 302 301 301 301 301 301 301 301 294 302
280 283 289 294 293 292 290 292 292 290 288 287 289 288 288 284 285 289 296 298 297 298 299 296 295 295 295 296 298 299 300 301 300 301 302 302 302 302 300 297 296 298 300 300 302 303 301 301 301 301 301 302 303 302
285 287 283 287 289 290 286 287 288 287 289 292 291 286 285 285 287 293 297 300 300 299 297 296 297 296 295 295 297 299 299 299 301 301 302 302 304 301 299 302 301 290 299 297 300 303 303 302 302 302 301 299 299 301
285 288 287 284 285 286 287 286 286 290 294 291 288 287 289 294 297 297 297 298 299 297 294 294 295 296 296 296 296 298 300 298 296 294 294 295 296 297 300 298 298 300 301 299 287 293 299 298 300 301 301 299 297 296
284 288 285 285 284 283 286 289 290 292 294 294 295 294 293 295 297 298 297 296 295 294 295 295 295 295 295 296 296 296 298 297 295 292 290 290 293 297 296 296 296 297 298 297 297 297 290 297 295 298 296 295 291 288
289 288 286 285 284 288 290 293 294 295 295 294 294 291 292 294 296 297 297 297 296 296 296 295 296 297 296 295 296 294 293 296 295 293 292 294 294 293 292 293 295 296 297 297 296 296 296 294 293 291 290 289 288 287
288 286 285 283 285 291 293 292 292 291 292 291 290 292 292 292 290 294 297 297 296 293 292 294 294 293 295 296 296 293 288 288 287 286 286 288 288 290 292 292 293 296 296 296 295 294 293 291 288 287 286 286 286 285
288 289 289 288 287 288 291 291 289 288 289 289 290 291 291 289 288 290 297 296 295 294 293 294 294 294 294 294 292 289 287 286 283 282 282 282 282 283 288 289 292 294 293 292 291 291 289 288 286 285 284 284 283 283
Wind_Speed
21 23 24 23 23 24 24 24 25 24 24 24 22 20 18 15 11 4 5 3 2 4 12 8 7 13 7 2 4 5 8 3 5 3 3 2 2 2 5 11 9 5 2 4 4 5 5 5 5 7 7 5 10 10
22 22 24 23 23 24 24 25 26 26 24 23 23 21 17 14 13 5 4 3 5 5 10 14 20 21 17 13 3 2 3 4 4 4 4 1 3 3 3 7 14 6 4 3 6 6 5 7 1 10 10 9 8 9
24 23 24 24 24 24 24 26 27 26 26 23 23 22 19 15 13 7 6 6 3 4 9 3 9 17 14 14 10 3 3 4 3 2 3 3 5 3 1 3 5 11 14 4 10 17 18 16 23 24 14 7 7 8
23 23 24 25 25 25 24 25 27 27 25 24 23 21 19 15 14 10 5 5 1 4 4 7 11 8 5 11 16 14 11 6 3 4 4 1 3 7 3 4 2 2 15 8 6 16 20 18 23 22 20 19 5 7
24 24 24 25 27 26 25 25 27 27 25 24 23 22 19 16 15 9 7 7 4 2 4 8 18 4 5 8 14 16 14 8 5 2 3 3 4 3 3 4 4 8 5 6 5 14 5 16 22 19 18 18 14 18
24 25 25 25 26 27 27 26 28 28 26 25 26 22 17 13 9 4 2 3 2 2 4 5 6 8 5 5 7 6 10 6 4 3 4 4 2 2 3 4 2 2 7 8 4 8 11 14 19 22 12 14 17 13
24 25 26 26 27 27 28 27 28 29 27 26 22 19 13 7 3 4 2 1 4 2 3 5 5 3 2 5 4 4 6 5 4 4 4 4 4 5 4 5 6 7 6 7 4 9 11 15 20 22 14 15 17 17
24 26 26 26 27 27 28 27 28 30 28 28 22 17 10 4 7 5 5 5 3 3 2 4 6 4 4 4 4 3 4 3 3 5 3 4 4 4 5 7 7 8 2 6 5 5 6 18 21 19 9 10 12 15
25 26 26 26 26 27 27 27 28 30 31 29 22 17 2 3 4 1 6 7 2 2 3 3 4 5 5 2 3 4 3 3 4 2 4 3 3 6 4 4 10 9 5 6 7 6 7 16 19 19 10 10 8 9
25 26 27 27 26 27 27 25 27 30 34 27 3 3 3 1 3 2 2 3 2 3 4 4 5 4 3 2 3 4 3 3 3 3 4 7 9 13 12 13 12 11 5 8 6 6 4 15 16 17 10 7 1 6
26 27 28 28 27 26 26 23 24 28 13 5 5 3 6 9 2 3 3 1 2 4 3 2 6 9 2 2 1 3 3 4 3 3 4 4 1 11 19 18 20 12 11 11 5 12 10 14 14 12 10 12 9 8
26 27 28 28 27 25 24 23 21 8 5 6 5 7 5 3 3 4 5 3 3 4 3 5 10 5 3 3 2 2 3 3 3 7 4 3 5 15 17 20 19 16 15 14 14 10 16 15 15 9 8 14 14 13
26 28 28 28 27 23 22 25 21 16 12 2 3 4 4 3 7 5 5 3 5 3 8 11 8 2 2 3 2 2 3 3 7 2 3 3 9 13 17 16 15 15 18 11 10 9 9 7 6 12 13 8 11 12
26 29 30 28 23 21 26 27 23 10 3 3 3 7 2 2 2 5 6 6 5 5 9 8 6 2 3 3 1 3 3 3 4 5 4 6 11 13 15 16 10 11 12 10 7 12 10 12 12 7 7 6 11 11
25 30 31 16 24 29 29 28 26 2 4 3 1 2 3 5 5 6 5 4 5 7 5 4 3 3 3 4 3 4 6 4 4 3 4 11 17 12 16 14 8 8 9 7 6 7 6 6 5 8 5 10 9 8
25 26 5 28 29 32 31 20 5 3 4 2 3 3 4 5 5 6 7 5 7 8 2 3 3 5 5 3 5 5 8 5 6 5 7 6 10 12 15 17 13 9 8 8 7 5 5 6 5 5 2 5 9 6
19 6 20 26 29 32 30 4 3 4 3 3 3 4 4 8 1 2 7 4 6 7 3 3 5 2 3 4 4 2 3 4 8 9 8 4 6 10 9 13 14 12 11 9 6 5 5 6 3 2 3 3 6 8
5 12 25 27 20 13 4 4 3 3 5 5 4 3 4 2 5 0 3 4 3 4 4 2 1 4 2 3 4 4 5 6 7 6 4 4 5 7 10 9 11 17 19 14 5 2 11 11 7 6 8 7 5 7
15 17 27 29 10 5 5 4 3 3 4 4 4 5 3 3 1 5 2 4 4 1 2 3 3 2 2 4 5 3 5 4 5 5 4 5 8 6 9 10 8 8 11 15 17 10 10 11 9 8 7 2 4 5
25 23 22 16 5 4 6 5 4 4 4 4 4 6 5 3 3 3 2 4 4 1 2 1 1 3 3 4 6 5 5 5 5 6 4 4 4 7 9 8 10 9 4 8 11 14 8 10 9 9 5 9 7 3
10 3 8 6 6 7 5 4 4 4 3 3 5 6 5 3 3 3 2 1 3 2 3 2 1 4 5 4 10 7 4 4 1 5 4 3 5 6 7 8 10 8 8 9 7 9 11 9 7 4 6 5 6 5
6 10 5 5 5 5 6 6 4 3 2 4 6 7 5 2 3 4 3 5 3 3 3 2 2 3 1 1 5 6 10 11 10 8 9 11 3 5 7 6 8 10 10 8 8 9 6 2 3 2 4 5 6 7
9 4 4 5 5 3 7 2 4 6 5 4 1 2 2 2 4 3 1 2 3 3 2 4 2 2 3 6 4 5 8 10 6 6 8 1 8 6 5 7 7 8 10 10 8 8 8 8 9 9 7 4 5 6
8 4 5 5 6 5 4 4 3 2 3 2 2 4 5 4 4 5 7 4 2 2 5 11 3 3 1 4 2 3 6 6 9 5 7 8 5 5 6 5 6 7 6 4 5 7 7 7 10 10 9 10 7 6
4 7 4 7 5 6 6 4 5 4 6 4 4 5 2 1 2 7 11 4 6 5 3 5 5 3 3 4 4 2 4 6 3 4 4 8 9 2 3 0 5 7 8 9 8 6 5 6 7 8 10 9 12 11
7 6 8 6 4 5 5 5 6 7 8 7 4 3 1 1 3 5 3 3 5 5 4 5 6 2 1 2 0 1 3 4 4 3 3 1 3 4 5 6 5 6 6 7 6 7 6 6 6 9 12 13 11 9
7 8 5 5 3 4 5 5 6 4 6 6 4 4 1 2 4 3 2 4 5 5 4 0 2 1 2 3 1 1 2 3 4 0 3 5 6 6 4 4 4 3 5 6 6 8 6 7 7 8 11 10 11 11
8 6 10 3 5 5 10 8 9 6 4 2 3 6 6 6 4 2 3 3 3 4 3 2 2 3 3 3 1 3 3 2 4 7 4 6 5 6 8 5 2 4 4 5 5 6 7 6 6 9 10 10 10 10
7 5 6 8 4 4 8 13 13 6 6 7 5 7 11 5 2 1 3 5 5 4 3 3 2 3 3 3 5 4 9 8 7 10 13 7 4 4 4 8 5 3 3 4 5 5 8 7 8 10 10 9 9 9
7 7 7 9 8 9 11 8 7 10 10 13 12 9 8 7 6 2 4 2 1 2 3 1 4 5 7 6 6 10 8 7 9 6 6 7 8 2 3 6 8 7 5 5 5 5 7 7 8 9 8 7 6 6
4 5 7 7 10 11 11 9 12 10 9 8 7 7 5 2 2 3 2 4 3 3 1 7 9 8 7 7 6 6 5 5 7 10 6 4 7 8 9 9 7 5 4 6 6 6 8 8 7 7 8 9 10 7
6 8 7 9 10 10 10 7 6 9 8 7 8 5 7 1 5 5 9 9 10 9 7 9 9 8 8 8 8 8 10 7 7 7 9 6 5 6 5 6 8 7 7 6 6 7 9 8 6 7 7 9 9 10
7 9 9 6 4 5 5 4 1 4 7 4 6 5 3 4 3 2 3 7 7 6 6 7 6 7 9 9 9 8 9 7 7 5 5 6 8 8 6 6 6 7 9 7 8 8 10 11 8 9 9 9 10 10
Wind_Direction
338 333 330 332 328 328 328 328 326 326 327 327 327 329 331 330 341 329 275 202 218 262 285 271 300 297 290 262 295 332 329 359 298 173 210 247 244 169 326 306 291 312 289 194 156 111 211 185 296 226 210 200 168 164
338 335 328 327 327 327 327 326 326 326 324 322 322 321 321 324 320 329 269 265 268 242 267 286 277 268 254 250 186 191 223 218 333 322 343 331 188 122 194 278 338 31 352 235 9 200 272 104 190 274 187 169 156 159
337 334 329 327 327 327 327 330 327 324 323 318 315 314 312 312 310 297 288 284 292 277 286 258 248 253 234 215 174 225 222 212 154 136 308 310 255 145 242 242 306 348 7 5 348 13 341 358 11 355 339 140 153 153
331 331 329 328 327 326 327 328 326 320 318 314 313 311 308 306 303 298 271 283 180 268 283 281 330 309 249 208 185 196 248 315 225 179 235 178 304 6 8 335 298 29 304 341 281 357 347 8 347 336 340 357 29 165
329 329 330 329 327 325 327 327 322 318 317 316 315 313 309 305 299 289 259 256 198 164 298 292 296 275 66 170 212 219 220 233 267 291 249 278 256 174 214 195 176 172 276 8 313 339 333 314 328 333 349 12 2 10
329 329 329 329 329 326 326 327 323 319 321 321 324 324 317 307 310 290 304 71 159 224 311 302 322 284 347 326 291 291 198 223 225 226 271 225 202 136 309 296 41 338 167 289 239 294 294 309 319 344 341 1 358 345
328 327 328 329 330 327 327 326 323 319 322 322 323 320 310 302 261 248 281 273 325 284 256 285 281 265 43 316 315 291 278 234 201 233 243 247 211 183 194 182 261 268 205 190 293 12 333 336 327 323 326 348 357 346
326 326 326 327 329 329 327 325 323 320 320 320 319 319 301 297 266 277 231 212 169 241 219 271 272 300 24 328 305 45 284 299 242 204 229 241 271 194 234 214 225 236 161 289 205 101 276 298 311 307 331 354 356 11
324 325 325 326 329 329 327 323 323 323 320 316 314 300 262 194 231 216 148 135 207 280 286 250 260 280 353 262 312 293 251 288 290 257 228 215 225 242 297 220 227 253 194 220 180 148 274 291 297 308 309 322 327 354
322 325 325 325 329 329 325 321 323 325 318 316 308 202 226 146 264 320 127 176 188 226 234 268 9 282 267 5 301 315 314 292 313 280 296 219 244 248 263 270 266 271 263 212 148 168 220 294 294 295 278 315 295 311
321 324 325 325 328 328 321 319 328 330 311 353 348 312 325 312 294 211 280 240 329 271 230 309 292 307 237 275 276 16 335 311 291 356 298 288 57 357 343 338 339 263 249 267 224 176 200 240 268 283 324 322 255 216
320 321 324 324 325 324 320 322 334 339 333 315 282 284 268 277 3 17 332 342 8 304 295 284 308 329 28 52 20 19 331 309 285 341 281 265 31 353 337 319 311 316 314 214 244 224 181 250 236 261 294 287 307 313
318 318 320 322 321 320 323 325 327 323 292 186 209 251 52 337 25 16 331 315 299 287 284 299 316 109 102 67 37 354 319 280 323 284 300 325 321 330 316 306 289 294 308 222 233 255 210 178 235 215 234 269 277 292
318 316 317 319 313 324 330 328 326 342 293 255 313 328 14 354 344 244 250 260 243 233 285 338 328 68 78 24 61 319 341 289 324 328 327 287 314 310 319 321 305 293 302 318 242 238 233 211 197 225 243 253 270 277
319 317 313 308 341 335 327 323 313 235 267 264 279 316 321 268 279 285 290 325 320 319 319 339 2 336 54 39 26 325 334 345 344 294 273 303 310 302 342 338 331 313 310 322 352 350 349 326 232 171 250 281 275 280
322 312 337 352 332 326 319 314 270 206 251 254 210 223 263 298 313 333 337 340 340 325 11 33 8 352 25 9 6 8 328 358 301 274 267 306 324 331 347 356 13 16 14 355 344 321 305 306 325 356 328 285 324 321
316 234 338 326 324 319 303 263 256 236 241 253 250 261 232 274 315 321 314 329 327 343 354 31 23 321 348 3 12 327 311 261 283 324 343 358 344 331 330 3 10 15 23 357 319 278 240 262 295 15 7 44 56 41
261 308 310 311 326 296 270 216 258 267 249 243 250 264 285 89 286 12 287 311 331 337 349 24 181 52 9 313 297 243 240 263 269 282 328 12 336 321 333 10 24 13 21 7 344 334 69 53 59 45 88 113 93 65
292 296 298 296 299 304 281 263 142 273 284 313 314 289 298 293 3 310 314 308 301 358 58 20 346 15 223 230 262 330 311 289 297 286 312 13 43 20 306 355 32 46 36 15 21 56 72 71 60 47 57 67 124 81
295 294 283 284 187 257 264 260 157 225 261 244 292 293 275 263 254 199 227 315 318 46 44 323 251 273 354 330 330 325 307 319 345 334 346 16 11 24 28 349 360 9 3 37 41 27 45 61 48 43 24 38 54 65
292 286 266 246 216 219 277 278 267 233 258 223 240 277 273 288 272 320 159 40 310 240 177 252 293 117 92 1 304 300 328 313 84 306 323 42 18 33 47 32 353 15 13 16 42 75 48 40 38 41 22 38 33 39
255 270 280 248 235 236 225 214 245 271 287 271 275 272 273 255 242 259 218 181 207 233 292 337 46 13 350 92 35 354 339 351 2 331 19 14 5 42 39 25 32 17 13 16 12 31 71 73 26 20 90 104 76 47
285 241 217 242 259 250 260 268 240 219 235 262 319 286 260 252 260 288 232 226 204 136 280 289 31 304 81 53 345 26 320 340 350 8 349 70 22 16 37 39 34 34 14 11 17 19 25 17 49 54 36 45 72 77
207 244 245 236 214 244 256 238 225 220 270 284 217 240 262 274 281 280 266 243 86 90 101 286 289 330 81 98 42 14 6 346 321 47 329 353 58 40 16 14 15 28 20 353 13 32 29 29 42 32 34 49 60 67
260 245 199 253 267 251 230 223 235 225 231 235 233 247 262 293 287 286 286 271 156 179 113 5 336 358 33 59 16 2 99 282 317 13 3 24 337 132 168 177 48 31 13 6 7 26 20 42 47 43 50 39 56 45
231 241 200 220 227 229 215 215 213 224 234 221 240 220 75 314 246 256 254 309 117 132 158 195 223 170 289 331 356 91 326 326 356 7 327 201 237 13 31 41 32 11 10 355 359 41 9 12 32 54 53 47 57 36
234 243 233 246 273 267 259 254 249 233 214 205 173 143 122 240 244 237 59 57 137 181 170 125 60 145 212 259 231 30 330 327 323 107 279 327 33 28 58 73 47 345 352 360 3 20 39 34 28 40 72 58 50 40
231 253 222 194 223 240 267 263 257 262 223 204 161 196 190 198 230 289 110 205 206 184 185 191 220 243 269 294 218 200 261 0 347 357 14 84 27 4 25 343 114 102 55 11 14 33 24 32 69 65 66 62 54 41
226 227 225 241 236 235 248 243 248 242 273 257 229 216 244 254 230 264 188 198 182 193 218 256 55 64 25 337 327 35 45 34 14 34 36 34 9 354 359 316 7 59 105 80 43 57 61 58 59 60 59 72 62 45
232 206 209 215 231 236 218 240 250 225 229 253 270 283 279 215 247 66 348 287 221 226 234 152 85 66 60 49 53 66 47 35 47 30 38 26 355 319 26 7 1 353 7 20 41 48 70 58 61 67 65 68 60 49
258 212 213 217 246 254 254 245 248 242 255 268 265 248 241 218 217 183 22 355 346 332 112 105 84 71 75 66 70 88 85 46 53 53 19 18 356 6 356 341 337 358 12 64 47 22 77 66 54 59 75 83 75 65
200 213 222 246 256 256 262 264 192 214 239 244 256 246 264 305 7 47 7 18 46 60 20 54 73 60 62 76 85 74 68 69 50 39 25 17 13 348 348 351 340 347 21 75 82 70 56 60 71 66 67 71 76 80
217 235 252 259 270 228 216 246 306 284 269 254 268 279 171 167 210 180 75 47 68 80 64 65 68 72 68 71 92 94 88 92 91 75 59 45 31 12 7 355 348 42 45 47 60 69 75 73 71 72 72 73 75 77